Portada
METAR-TAF:

METAR-TAF

Aeroports :

McKinley Park, Alaska, Estats Units d'Amèrica

latitud: 63-44N, longitud: 148-55W, altitud: 524 m

Observació

L'informe es va fer fa 59 minuts, a les 23:56 UTC
Vent 10 kt del Sud amb ràfegues de 14 kt, variant entre Sud-Est i Sud/Sud-Oest
Temperatura 3°C
Humitat 60%
Pressió 981 hPa
Visibilitat: 16.1 km
Cel cobert a una alçada de 6500 ft

METAR: PAIN 212356Z AUTO 17010G14KT 130V200 10SM OVC065 03/M04 A2897 RMK AO2 SLP833 60000 T00281044 10028 20000 58017

Hora: 15:55 (00:55 UTC)


TAF: manca

Observacions i pronòstics meteorològics de més de 4000 aeroports (METAR i TAF).

Les estacions disponibles són els punts grocs i vermells al mapa.

Posi el ratolí al punt desitjat per veure el nom de l'estació.

Feu clic per veure les observacions i els pronòstics meteorològics.

Per canviar el mapa: feu clic els botons verds amb una creu de color negre per apropar; al botó verd amb un guió per allunyar la imatge; o en les fletxes verdes per a mapes adjacents.


METAR-TAF: